CW4224 Lutz FL US current weather conditions

sailwx.info

Wind from 005 at 1 knots gusting 6

Air temperature 15.0° C
Dewpoint 8.5° C

Last reported at 2020-Feb-22 16:04 UTC.
Time now 2020-Feb-22 16:30 UTC

Location: N 28°07' W 082°27'.
View on Google Maps.

See reports from other nearby stations

  
Tides and Currents Weather Stations Pressure Air Temp Water Temp Dewpoint Dewpoint Depression Visibility Wind Speed Wind Dir Waves Ship Positions
date/time (UTC)wind fromknots sea level pressurealtimeterstation pressurevisibilityair tempwater tempwave heightnotes
2020-Feb-22 16:09 045 0 gusting 8 15.0
2020-Feb-22 16:04 005 1 gusting 6 15.0
2020-Feb-22 15:59 026 0 gusting 8 15.0
2020-Feb-22 15:54 005 3 gusting 8 15.0
2020-Feb-22 15:49 325 1 gusting 6 14.4
2020-Feb-22 15:44 038 0 gusting 6 14.4
2020-Feb-22 15:39 021 0 gusting 7 14.4
2020-Feb-22 15:34 355 3 gusting 7 14.4
2020-Feb-22 15:29 355 14.4
2020-Feb-22 15:24 019 13.9
2020-Feb-22 15:19 024 0 gusting 6 13.3
2020-Feb-22 15:14 013 1 gusting 7 12.8
2020-Feb-22 15:09 010 1 gusting 7 12.8
2020-Feb-22 15:04 055 2 gusting 10 12.8
2020-Feb-22 14:59 360 3 gusting 10 12.8
2020-Feb-22 14:54 350 1 gusting 6 12.2
2020-Feb-22 14:49 030 12.2
2020-Feb-22 14:44 014 0 gusting 6 11.7
2020-Feb-22 14:39 337 0 gusting 12 11.7
2020-Feb-22 14:34 056 0 gusting 12 11.1
2020-Feb-22 14:29 009 0 gusting 9 11.1
2020-Feb-22 14:24 022 2 gusting 9 10.6
2020-Feb-22 14:20 009 3 gusting 9 10.6
2020-Feb-22 14:14 013 0 gusting 8 10.0
2020-Feb-22 14:09 026 2 gusting 8 10.0
2020-Feb-22 14:04 016 2 gusting 7 9.4
2020-Feb-22 13:59 024 1 gusting 5 9.4
2020-Feb-22 13:54 039 8.9
2020-Feb-22 13:49 360 3 gusting 9 8.3
2020-Feb-22 13:44 005 2 gusting 6 7.8
2020-Feb-22 13:39 355 0 gusting 6 7.8
2020-Feb-22 13:34 360 2 gusting 6 7.2
2020-Feb-22 13:29 005 6.7
2020-Feb-22 13:24 355 1 gusting 11 6.7
2020-Feb-22 13:19 049 2 gusting 11 6.1
2020-Feb-22 13:14 031 2 gusting 6 6.1
2020-Feb-22 13:10 011 4 gusting 6 6.1
2020-Feb-22 13:04 360 4 gusting 6 5.6
2020-Feb-22 12:59 053 1 gusting 6 5.6
2020-Feb-22 12:53 355 5.0
2020-Feb-22 12:49 348 5.0
2020-Feb-22 12:44 355 5.0
2020-Feb-22 12:39 355 0 gusting 6 4.4
2020-Feb-22 12:34 005 4.4
2020-Feb-22 12:29 005 0 gusting 6 4.4
2020-Feb-22 12:24 360 1 gusting 6 4.4
2020-Feb-22 12:19 338 0 gusting 6 4.4
2020-Feb-22 12:14 351 0 gusting 2 4.4
2020-Feb-22 12:10 355 3.9
2020-Feb-22 12:04 348 3.9
2020-Feb-22 11:59 349 3.9
2020-Feb-22 11:54 344 3.9
2020-Feb-22 11:49 349 3.9
2020-Feb-22 11:44 015 3.9
2020-Feb-22 11:39 017 0 gusting 4 3.9
2020-Feb-22 11:34 019 0 gusting 5 3.9
2020-Feb-22 11:29 009 3.9
2020-Feb-22 11:25 005 1 gusting 5 3.9
2020-Feb-22 11:19 339 3.9
2020-Feb-22 11:14 005 3.9
2020-Feb-22 11:09 005 3.9
2020-Feb-22 11:04 340 3.9
2020-Feb-22 10:59 059 0 gusting 5 3.9
2020-Feb-22 10:55 005 3.9
2020-Feb-22 10:49 009 3.9
2020-Feb-22 10:44 005 4.4
2020-Feb-22 10:39 360 4.4
2020-Feb-22 10:34 360 4.4
2020-Feb-22 10:29 005 4.4
2020-Feb-22 10:24 331 1 gusting 7 4.4
2020-Feb-22 10:19 011 0 gusting 5 4.4
2020-Feb-22 10:14 313 1 gusting 6 4.4
2020-Feb-22 10:09 009 1 gusting 6 4.4
2020-Feb-22 10:04 355 0 gusting 8 4.4
2020-Feb-22 09:59 355 3 gusting 8 4.4
2020-Feb-22 09:54 017 1 gusting 5 4.4
2020-Feb-22 09:49 022 4.4
2020-Feb-22 09:44 048 0 gusting 4 5.0
2020-Feb-22 09:39 005 5.0
2020-Feb-22 09:35 005 0 gusting 5 5.0
2020-Feb-22 09:29 010 5.0
2020-Feb-22 09:24 005 0 gusting 6 5.0
2020-Feb-22 09:19 033 2 gusting 6 5.0
2020-Feb-22 09:14 360 1 gusting 6 5.0
2020-Feb-22 09:09 030 1 gusting 6 5.0
2020-Feb-22 09:04 019 1 gusting 7 5.0
2020-Feb-22 08:59 344 1 gusting 6 5.0
2020-Feb-22 08:54 313 5.0
2020-Feb-22 08:49 024 4 gusting 11 5.0
2020-Feb-22 08:44 064 2 gusting 6 5.6
2020-Feb-22 08:39 005 3 gusting 6 5.6
2020-Feb-22 08:34 005 5.6
2020-Feb-22 08:29 022 5.6
2020-Feb-22 08:25 020 5.6
2020-Feb-22 08:19 022 5.6
2020-Feb-22 08:14 024 5.6
2020-Feb-22 08:09 317 2 gusting 6 5.6
2020-Feb-22 08:05 040 1 gusting 6 5.6
2020-Feb-22 07:59 009 5.6
2020-Feb-22 07:54 360 0 gusting 6 5.6
2020-Feb-22 07:50 005 1 gusting 6 5.6
2020-Feb-22 07:44 005 2 gusting 6 5.6
2020-Feb-22 07:39 034 0 gusting 6 5.6
2020-Feb-22 07:35 355 1 gusting 6 6.1
2020-Feb-22 07:29 026 1 gusting 6 6.1
2020-Feb-22 07:24 011 1 gusting 6 6.1
2020-Feb-22 07:20 343 0 gusting 11 6.1
2020-Feb-22 07:14 005 3 gusting 11 6.1
2020-Feb-22 07:09 355 0 gusting 6 6.1
2020-Feb-22 07:04 019 3 gusting 7 6.1
2020-Feb-22 06:59 336 0 gusting 7 6.1
2020-Feb-22 06:54 026 1 gusting 6 6.1
2020-Feb-22 06:49 005 3 gusting 7 6.1
2020-Feb-22 06:44 360 3 gusting 8 6.1
2020-Feb-22 06:39 351 0 gusting 8 6.1
2020-Feb-22 06:34 040 0 gusting 5 6.1
2020-Feb-22 06:29 022 1 gusting 6 6.1
2020-Feb-22 06:24 063 0 gusting 6 6.1
2020-Feb-22 06:19 346 1 gusting 7 6.1
2020-Feb-22 06:14 010 3 gusting 7 6.1
2020-Feb-22 06:09 027 1 gusting 5 6.1
2020-Feb-22 06:04 016 6.1
2020-Feb-22 06:00 010 1 gusting 5 6.7
2020-Feb-22 05:54 005 6.7
2020-Feb-22 05:49 005 2 gusting 4 6.7
2020-Feb-22 05:44 355 0 gusting 6 6.7
2020-Feb-22 05:39 355 0 gusting 6 6.7
2020-Feb-22 05:34 009 0 gusting 6 6.7
2020-Feb-22 05:29 018 1 gusting 6 6.7
2020-Feb-22 05:25 024 1 gusting 7 6.7
2020-Feb-22 05:19 355 3 gusting 7 6.7
2020-Feb-22 05:14 349 1 gusting 7 6.7
2020-Feb-22 05:09 021 1 gusting 7 6.7
2020-Feb-22 05:04 355 2 gusting 7 6.7
2020-Feb-22 04:59 005 4 gusting 9 7.2
2020-Feb-22 04:54 005 1 gusting 7 7.2
2020-Feb-22 04:49 010 7.2
2020-Feb-22 04:43 349 0 gusting 7 7.2
2020-Feb-22 04:39 005 1 gusting 7 7.2
2020-Feb-22 04:34 355 2 gusting 6 7.2
2020-Feb-22 04:29 009 1 gusting 6 7.2
2020-Feb-22 04:24 027 1 gusting 9 7.2
2020-Feb-22 04:19 013 1 gusting 13 7.2
2020-Feb-22 04:14 335 2 gusting 13 7.2
2020-Feb-22 04:09 355 3 gusting 7 7.2
2020-Feb-22 04:04 013 4 gusting 7 7.2
2020-Feb-22 03:59 306 0 gusting 6 7.2
2020-Feb-22 03:54 194 2 gusting 6 7.2
2020-Feb-22 03:49 053 0 gusting 9 7.8
2020-Feb-22 03:44 360 1 gusting 9 7.8
2020-Feb-22 03:39 348 7.8
2020-Feb-22 03:34 360 2 gusting 11 7.8
2020-Feb-22 03:29 017 0 gusting 10 7.8
2020-Feb-22 03:24 344 3 gusting 10 7.8
2020-Feb-22 03:19 032 1 gusting 9 7.8
2020-Feb-22 03:14 306 7.8
2020-Feb-22 03:09 069 1 gusting 6 7.8
2020-Feb-22 03:04 335 3 gusting 9 7.8
2020-Feb-22 02:59 013 3 gusting 9 7.8
2020-Feb-22 02:54 036 7.8
2020-Feb-22 02:49 355 5 gusting 15 7.8
2020-Feb-22 02:44 015 2 gusting 11 7.8
2020-Feb-22 02:39 005 2 gusting 11 7.8
2020-Feb-22 02:34 005 8.3
2020-Feb-22 02:29 019 1 gusting 6 8.3
2020-Feb-22 02:24 067 1 gusting 5 8.3
2020-Feb-22 02:19 350 1 gusting 5 8.3
2020-Feb-22 02:14 039 8.3
2020-Feb-22 02:09 012 0 gusting 9 8.3
2020-Feb-22 02:04 013 2 gusting 7 8.3
2020-Feb-22 02:00 024 1 gusting 7 8.3
2020-Feb-22 01:54 027 8.9
2020-Feb-22 01:50 355 0 gusting 7 8.3
2020-Feb-22 01:44 013 0 gusting 7 8.9
2020-Feb-22 01:40 355 1 gusting 7 8.3
2020-Feb-22 01:34 005 8.9
2020-Feb-22 01:29 355 3 gusting 12 8.9
2020-Feb-22 01:24 005 8.9
2020-Feb-22 01:18 025 5 gusting 10 8.9
2020-Feb-22 01:14 055 1 gusting 8 8.9
2020-Feb-22 01:10 032 0 gusting 11 8.9
2020-Feb-22 01:03 011 3 gusting 11 8.9
2020-Feb-22 00:59 334 3 gusting 11 8.9
2020-Feb-22 00:54 009 0 gusting 13 8.9
2020-Feb-22 00:49 360 5 gusting 13 8.9
2020-Feb-22 00:44 341 0 gusting 6 8.9
2020-Feb-22 00:39 040 0 gusting 6 8.9
2020-Feb-22 00:34 355 0 gusting 6 8.9
2020-Feb-22 00:29 039 1 gusting 6 8.9
2020-Feb-22 00:25 355 8.9
2020-Feb-22 00:19 351 4 gusting 10 8.9
2020-Feb-22 00:14 355 3 gusting 11 8.9
2020-Feb-22 00:09 049 4 gusting 11 8.9
2020-Feb-22 00:04 005 1 gusting 6 8.9
2020-Feb-22 00:00 355 2 gusting 6 8.9
2020-Feb-21 23:54 350 0 gusting 6 8.9
2020-Feb-21 23:49 021 0 gusting 8 8.9
2020-Feb-21 23:44 009 2 gusting 8 8.9
2020-Feb-21 23:39 009 8.9
2020-Feb-21 23:34 019 8.9
2020-Feb-21 23:29 065 0 gusting 9 8.9
2020-Feb-21 23:25 011 2 gusting 9 8.9
2020-Feb-21 23:19 041 0 gusting 11 8.9
2020-Feb-21 23:14 005 3 gusting 11 8.9
2020-Feb-21 23:09 355 0 gusting 8 9.4
2020-Feb-21 23:04 029 0 gusting 9 9.4
2020-Feb-21 22:59 318 1 gusting 9 9.4
2020-Feb-21 22:54 338 9.4
2020-Feb-21 22:50 360 3 gusting 6 9.4
2020-Feb-21 22:44 343 0 gusting 6 9.4
2020-Feb-21 22:39 017 0 gusting 15 9.4
2020-Feb-21 22:34 010 2 gusting 15 9.4
2020-Feb-21 22:29 013 6 gusting 9 9.4
2020-Feb-21 22:24 058 0 gusting 6 9.4
2020-Feb-21 22:19 022 2 gusting 6 10.0
2020-Feb-21 22:14 360 0 gusting 9 10.0
2020-Feb-21 22:09 329 2 gusting 9 10.0
2020-Feb-21 22:04 022 3 gusting 15 10.0
2020-Feb-21 21:59 355 5 gusting 15 10.0
2020-Feb-21 21:54 015 1 gusting 10 10.0
2020-Feb-21 21:49 018 1 gusting 6 10.0
2020-Feb-21 21:44 010 10.0
2020-Feb-21 21:39 022 1 gusting 6 10.0
2020-Feb-21 21:35 299 1 gusting 6 10.6
2020-Feb-21 21:29 034 0 gusting 7 10.6
2020-Feb-21 21:24 337 3 gusting 7 10.6
2020-Feb-21 21:20 005 0 gusting 7 10.6
2020-Feb-21 21:14 355 2 gusting 11 10.6
2020-Feb-21 21:09 330 2 gusting 11 10.6
2020-Feb-21 21:04 336 4 gusting 11 10.6
2020-Feb-21 20:59 023 3 gusting 11 10.6
2020-Feb-21 20:54 014 2 gusting 13 10.6
2020-Feb-21 20:49 355 4 gusting 13 10.6
2020-Feb-21 20:44 040 0 gusting 13 10.6
2020-Feb-21 20:39 005 3 gusting 6 11.1
2020-Feb-21 20:35 355 0 gusting 8 11.1
2020-Feb-21 20:29 069 4 gusting 13 11.1
2020-Feb-21 20:24 009 4 gusting 13 11.1
2020-Feb-21 20:19 336 0 gusting 15 11.1
2020-Feb-21 20:14 023 4 gusting 15 11.7
2020-Feb-21 20:09 005 0 gusting 9 11.7
2020-Feb-21 20:04 044 1 gusting 11 11.7
2020-Feb-21 19:59 024 3 gusting 11 11.7
2020-Feb-21 19:54 010 2 gusting 7 11.7
2020-Feb-21 19:49 022 12.2
2020-Feb-21 19:44 034 2 gusting 13 12.2
2020-Feb-21 19:39 355 4 gusting 13 12.2
2020-Feb-21 19:34 331 0 gusting 8 12.2
2020-Feb-21 19:29 091 3 gusting 15 12.2
2020-Feb-21 19:24 360 3 gusting 8 12.8
2020-Feb-21 19:19 333 2 gusting 7 12.8
2020-Feb-21 19:14 058 1 gusting 11 12.2
2020-Feb-21 19:09 360 4 gusting 11 12.2
2020-Feb-21 19:04 312 2 gusting 13 12.2
2020-Feb-21 18:59 355 3 gusting 13 12.2
2020-Feb-21 18:54 355 3 gusting 10 12.2
2020-Feb-21 18:49 017 12.2
2020-Feb-21 18:44 009 2 gusting 13 12.2
2020-Feb-21 18:39 076 0 gusting 9 12.8
2020-Feb-21 18:34 344 2 gusting 13 12.2
2020-Feb-21 18:29 032 6 gusting 13 12.2
2020-Feb-21 18:24 031 1 gusting 10 12.2
2020-Feb-21 18:19 005 1 gusting 8 12.2
2020-Feb-21 18:14 020 4 gusting 12 12.2
2020-Feb-21 18:09 017 0 gusting 10 12.2
2020-Feb-21 18:04 076 0 gusting 13 12.2
2020-Feb-21 17:58 360 6 gusting 12 12.8
2020-Feb-21 17:54 005 0 gusting 9 12.2
2020-Feb-21 17:49 024 2 gusting 13 12.2
2020-Feb-21 17:43 333 5 gusting 13 12.2
2020-Feb-21 17:39 360 2 gusting 6 12.2
2020-Feb-21 16:47 047 11.7
2020-Feb-21 16:44 355 2 gusting 11 11.7
2020-Feb-21 16:39 051 2 gusting 11 11.7
2020-Feb-21 16:35 350 2 gusting 9 11.7
2020-Feb-21 16:29 355 2 gusting 9 11.7
2020-Feb-21 16:24 355 1 gusting 7 11.7
2020-Feb-21 16:19 038 4 gusting 7 11.7
2020-Feb-21 16:14 348 1 gusting 10 11.7
2020-Feb-21 16:09 355 11.7
2020-Feb-21 16:04 037 1 gusting 8 11.1
2020-Feb-21 16:00 333 5 gusting 8 11.1
2020-Feb-21 15:54 011 11.1
2020-Feb-21 15:50 015 11.1
2020-Feb-21 15:44 036 1 gusting 11 10.6
2020-Feb-21 15:39 331 0 gusting 13 10.0
2020-Feb-21 15:34 340 4 gusting 15 10.0
2020-Feb-21 15:29 030 3 gusting 15 10.0
2020-Feb-21 15:24 030 4 gusting 12 10.0
2020-Feb-21 15:19 355 4 gusting 12 10.0
2020-Feb-21 15:14 360 0 gusting 6 10.6
2020-Feb-21 15:09 355 4 gusting 11 10.6
2020-Feb-21 15:05 355 5 gusting 11 10.6
2020-Feb-21 14:59 360 2 gusting 12 10.0
2020-Feb-21 14:54 351 1 gusting 12 10.0
2020-Feb-21 14:48 005 1 gusting 11 10.0
2020-Feb-21 14:44 015 3 gusting 11 9.4
2020-Feb-21 14:39 351 4 gusting 13 9.4
2020-Feb-21 14:34 134 1 gusting 13 9.4
2020-Feb-21 14:29 349 3 gusting 11 9.4
2020-Feb-21 14:24 360 2 gusting 9 9.4
2020-Feb-21 14:20 035 2 gusting 8 10.0
2020-Feb-21 14:14 355 5 gusting 8 10.0
2020-Feb-21 14:09 360 10.0
2020-Feb-21 14:05 355 4 gusting 10 10.0
2020-Feb-21 13:59 028 0 gusting 11 10.0
2020-Feb-21 13:54 019 6 gusting 11 9.4
2020-Feb-21 13:49 005 1 gusting 10 9.4
2020-Feb-21 13:44 038 3 gusting 10 9.4
2020-Feb-21 13:40 016 2 gusting 9 9.4
2020-Feb-21 13:34 360 3 gusting 12 10.0
2020-Feb-21 13:29 360 4 gusting 12 10.0
2020-Feb-21 13:24 351 5 gusting 7 10.0
2020-Feb-21 13:19 061 0 gusting 7 10.0
2020-Feb-21 13:14 013 3 gusting 7 10.0
2020-Feb-21 13:09 341 10.6
2020-Feb-21 13:05 337 0 gusting 6 10.6
2020-Feb-21 13:00 303 1 gusting 8 10.6
2020-Feb-21 12:54 350 2 gusting 13 10.6
2020-Feb-21 12:49 005 4 gusting 13 10.6
2020-Feb-21 12:44 040 6 gusting 11 10.6
2020-Feb-21 12:39 016 2 gusting 11 10.6
2020-Feb-21 12:34 005 1 gusting 7 10.6
2020-Feb-21 12:29 048 3 gusting 7 11.1
2020-Feb-21 12:24 025 1 gusting 6 11.1
2020-Feb-21 12:19 031 0 gusting 8 11.1
2020-Feb-21 12:14 005 2 gusting 8 11.1
2020-Feb-21 12:09 009 1 gusting 6 11.1
2020-Feb-21 12:04 036 0 gusting 6 11.1
2020-Feb-21 11:59 345 2 gusting 7 11.1
2020-Feb-21 11:54 034 2 gusting 7 11.1
2020-Feb-21 11:49 036 0 gusting 11 11.1
2020-Feb-21 11:44 339 3 gusting 12 11.1
2020-Feb-21 11:39 013 3 gusting 13 11.1
2020-Feb-21 11:34 011 2 gusting 13 11.7
2020-Feb-21 11:29 019 4 gusting 9 11.7
2020-Feb-21 11:24 022 11.7
2020-Feb-21 11:19 288 11.7
2020-Feb-21 11:15 350 3 gusting 7 11.7
2020-Feb-21 11:09 021 0 gusting 8 11.7
2020-Feb-21 11:04 041 11.7
2020-Feb-21 10:59 345 3 gusting 12 11.7
2020-Feb-21 10:54 037 0 gusting 8 12.2
2020-Feb-21 10:49 023 2 gusting 8 12.2
2020-Feb-21 10:44 035 0 gusting 6 12.2
2020-Feb-21 10:39 005 0 gusting 7 12.2
2020-Feb-21 10:34 009 2 gusting 7 12.2
2020-Feb-21 10:29 021 12.2
2020-Feb-21 10:24 062 1 gusting 8 12.2
2020-Feb-21 10:19 070 3 gusting 9 12.2
2020-Feb-21 10:14 333 0 gusting 9 12.2
2020-Feb-21 10:09 005 1 gusting 8 12.2
2020-Feb-21 10:04 360 1 gusting 12 12.8
2020-Feb-21 09:59 360 0 gusting 6 12.8
2020-Feb-21 09:55 033 0 gusting 7 12.8
2020-Feb-21 09:49 021 2 gusting 10 12.8
2020-Feb-21 09:44 314 4 gusting 10 12.8
2020-Feb-21 09:39 032 2 gusting 8 12.8
2020-Feb-21 09:34 029 0 gusting 12 13.3
2020-Feb-21 09:28 350 5 gusting 12 13.3
2020-Feb-21 09:24 349 0 gusting 8 13.3
2020-Feb-21 09:19 355 3 gusting 10 13.9
2020-Feb-21 09:14 360 1 gusting 10 13.9
2020-Feb-21 09:09 015 0 gusting 6 13.9
2020-Feb-21 09:04 053 1 gusting 6 14.4
2020-Feb-21 08:59 018 4 gusting 8 14.4
2020-Feb-21 08:54 035 1 gusting 8 15.0
2020-Feb-21 08:49 046 1 gusting 5 15.6
2020-Feb-21 08:45 355 0 gusting 11 16.1
2020-Feb-21 08:39 034 2 gusting 17 16.7
2020-Feb-21 08:34 350 6 gusting 17 17.8
2020-Feb-21 08:30 019 1 gusting 15 18.9
2020-Feb-21 08:24 360 8 gusting 15 21.1
2020-Feb-21 08:19 311 0 gusting 6 21.7
2020-Feb-21 08:14 290 0 gusting 9 22.2
2020-Feb-21 08:09 319 4 gusting 9 22.2
2020-Feb-21 08:04 005 2 gusting 8 22.2
2020-Feb-21 07:59 320 0 gusting 7 22.2
2020-Feb-21 07:55 325 1 gusting 7 22.2
2020-Feb-21 07:49 251 22.2
2020-Feb-21 07:44 296 22.2
2020-Feb-21 07:39 296 22.2
2020-Feb-21 07:34 360 0 gusting 6 22.2
2020-Feb-21 07:29 010 22.2
2020-Feb-21 07:24 011 22.2
2020-Feb-21 07:19 118 22.2
2020-Feb-21 07:15 117 22.2
2020-Feb-21 07:09 117 22.2
2020-Feb-21 07:04 191 22.2
2020-Feb-21 06:59 191 22.2
2020-Feb-21 06:53 198 22.2
2020-Feb-21 06:49 333 22.2
2020-Feb-21 06:44 333 22.2
2020-Feb-21 06:40 334 22.2
2020-Feb-21 06:34 334 22.2
2020-Feb-21 06:29 334 22.2
2020-Feb-21 06:23 334 22.2
2020-Feb-21 06:19 334 22.2
2020-Feb-21 06:13 334 22.2
2020-Feb-21 06:09 334 22.2
2020-Feb-21 06:04 334 22.2
2020-Feb-21 05:59 334 22.2
2020-Feb-21 05:54 334 22.2
2020-Feb-21 05:48 334 22.2
2020-Feb-21 05:45 334 22.2
2020-Feb-21 05:39 334 22.2
2020-Feb-21 05:34 334 22.2
2020-Feb-21 05:29 334 22.2
2020-Feb-21 05:24 334 22.2
2020-Feb-21 05:19 334 22.2
2020-Feb-21 05:14 334 21.7
2020-Feb-21 05:09 334 21.7
2020-Feb-21 05:04 334 21.7
2020-Feb-21 04:59 334 21.7
2020-Feb-21 04:54 334 21.7
2020-Feb-21 04:49 334 21.7
2020-Feb-21 04:45 334 21.7
2020-Feb-21 04:39 334 21.7
2020-Feb-21 04:34 334 21.7
2020-Feb-21 04:29 334 21.7
2020-Feb-21 04:24 334 21.7
2020-Feb-21 04:19 334 21.7
2020-Feb-21 04:15 334 21.7
2020-Feb-21 04:09 334 21.7
2020-Feb-21 04:04 334 21.7
2020-Feb-21 03:59 334 21.7
2020-Feb-21 03:54 334 21.7
2020-Feb-21 03:49 334 21.7
2020-Feb-21 03:44 334 21.7
2020-Feb-21 03:39 334 21.7
2020-Feb-21 03:34 334 21.7
2020-Feb-21 03:29 334 21.7
2020-Feb-21 03:24 334 21.7
2020-Feb-21 03:19 334 22.2
2020-Feb-21 03:15 334 22.2
2020-Feb-21 03:09 334 22.2
2020-Feb-21 03:04 334 22.2
2020-Feb-21 02:59 334 22.2
2020-Feb-21 02:53 334 22.2
2020-Feb-21 02:49 334 22.2
2020-Feb-21 02:44 334 22.2
2020-Feb-21 02:39 334 22.2
2020-Feb-21 02:34 334 22.2
2020-Feb-21 02:29 334 22.2
2020-Feb-21 02:24 334 22.2
2020-Feb-21 02:19 334 22.2
2020-Feb-21 02:14 334 22.2
2020-Feb-21 02:09 334 22.2
2020-Feb-21 02:04 334 22.8
2020-Feb-21 01:59 334 22.8
2020-Feb-21 01:54 334 22.8
2020-Feb-21 01:49 334 22.8
2020-Feb-21 01:44 334 22.8
2020-Feb-21 01:39 336 22.8
2020-Feb-21 01:34 336 22.8
2020-Feb-21 01:29 336 22.8
2020-Feb-21 01:24 336 22.8
2020-Feb-21 01:19 337 22.8
2020-Feb-21 01:14 337 22.8
2020-Feb-21 01:09 312 22.8
2020-Feb-21 01:04 340 22.8
2020-Feb-21 00:59 332 22.8
2020-Feb-21 00:54 333 23.3
2020-Feb-21 00:49 329 0 gusting 8 23.3
2020-Feb-21 00:44 329 1 gusting 8 23.3
2020-Feb-21 00:39 333 0 gusting 6 23.3
2020-Feb-21 00:34 219 0 gusting 6 23.3
2020-Feb-21 00:29 329 23.3
2020-Feb-21 00:23 331 23.3
2020-Feb-21 00:19 331 23.9
2020-Feb-21 00:14 329 23.9
2020-Feb-21 00:09 328 23.9
2020-Feb-21 00:04 329 23.9
2020-Feb-20 23:59 333 24.4
2020-Feb-20 23:54 284 24.4
2020-Feb-20 23:49 284 24.4
2020-Feb-20 23:44 284 0 gusting 6 24.4
2020-Feb-20 23:40 286 25.0
2020-Feb-20 23:34 298 25.0
2020-Feb-20 23:29 298 25.0
2020-Feb-20 23:24 297 25.0
2020-Feb-20 23:19 296 25.6
2020-Feb-20 23:14 296 25.6
2020-Feb-20 23:09 338 25.6
2020-Feb-20 23:04 306 25.6
2020-Feb-20 22:59 288 26.1
2020-Feb-20 22:54 188 26.1
2020-Feb-20 22:49 161 26.1
2020-Feb-20 22:44 161 26.1
2020-Feb-20 22:39 162 26.7
2020-Feb-20 22:34 162 26.7
2020-Feb-20 22:29 162 26.7
2020-Feb-20 22:24 160 26.7
2020-Feb-20 22:19 160 26.7
2020-Feb-20 22:14 159 26.7
2020-Feb-20 22:09 290 26.7
2020-Feb-20 22:04 290 26.7
2020-Feb-20 21:59 290 26.7
2020-Feb-20 21:54 286 26.7
2020-Feb-20 21:49 234 26.7
2020-Feb-20 21:44 146 26.7
2020-Feb-20 21:39 182 26.7
2020-Feb-20 21:34 180 26.7
2020-Feb-20 21:29 135 26.7
2020-Feb-20 21:24 198 27.2
2020-Feb-20 21:19 198 27.2
2020-Feb-20 21:15 152 27.2
2020-Feb-20 21:09 157 27.2
2020-Feb-20 21:04 238 1 gusting 4 27.8
2020-Feb-20 20:59 288 27.8
2020-Feb-20 20:54 292 0 gusting 4 27.8
2020-Feb-20 20:49 182 27.8
2020-Feb-20 20:44 181 27.8
2020-Feb-20 20:39 142 27.8
2020-Feb-20 20:34 145 27.8
2020-Feb-20 20:28 204 27.8
2020-Feb-20 20:24 213 28.3
2020-Feb-20 20:19 273 28.3
2020-Feb-20 20:14 144 0 gusting 5 28.3
2020-Feb-20 20:09 171 1 gusting 5 28.3
2020-Feb-20 20:05 113 28.3
2020-Feb-20 19:59 181 28.3
2020-Feb-20 19:54 214 28.9
2020-Feb-20 19:49 213 28.3
2020-Feb-20 19:44 188 27.8
2020-Feb-20 19:39 187 28.3
2020-Feb-20 19:34 029 28.3
2020-Feb-20 19:29 167 0 gusting 6 28.3
2020-Feb-20 19:24 182 28.9
2020-Feb-20 19:19 192 0 gusting 11 28.3
2020-Feb-20 19:14 182 28.9
2020-Feb-20 19:09 245 28.9
2020-Feb-20 19:04 249 0 gusting 3 28.9
2020-Feb-20 18:59 204 28.9
2020-Feb-20 18:54 314 0 gusting 5 28.9
2020-Feb-20 18:50 299 28.9
2020-Feb-20 18:44 158 2 gusting 13 28.3
2020-Feb-20 18:39 167 28.3
2020-Feb-20 18:34 163 27.8
2020-Feb-20 18:29 160 0 gusting 7 27.2
2020-Feb-20 18:24 209 27.8
2020-Feb-20 18:19 174 27.8
2020-Feb-20 18:14 242 27.2
2020-Feb-20 18:09 150 26.7
2020-Feb-20 18:04 148 26.7
2020-Feb-20 17:59 169 1 gusting 6 26.7
2020-Feb-20 17:54 163 26.1
2020-Feb-20 17:49 163 1 gusting 7 26.1
2020-Feb-20 17:44 176 3 gusting 7 26.1
2020-Feb-20 17:39 142 25.6
2020-Feb-20 17:34 179 25.6
2020-Feb-20 17:29 155 25.0
2020-Feb-20 17:24 154 25.0
2020-Feb-20 17:19 154 25.0
2020-Feb-20 17:14 154 25.0
2020-Feb-20 17:09 154 24.4
2020-Feb-20 17:04 154 23.9
2020-Feb-20 16:59 154 23.9
2020-Feb-20 16:54 154 23.9
2020-Feb-20 16:49 154 23.9
2020-Feb-20 16:44 154 23.9
2020-Feb-20 16:38 154 23.9
2020-Feb-20 16:34 153 23.9
2020-Feb-20 16:29 153 23.9
2020-Feb-20 16:24 154 23.9
2020-Feb-20 16:19 154 23.9
2020-Feb-20 16:14 154 23.3
2020-Feb-20 16:10 151 23.3
2020-Feb-20 16:04 151 23.3
2020-Feb-20 16:00 150 23.3